This is the latest recevied weather packets stored in our database for station/object PD2BVG. If no packets are shown the sender has not sent any weather packets the latest 1 day(s).
| Time | Temp. | Humidity | Pressure | Rain* | Wind** | Luminosity | Snow |
|---|---|---|---|---|---|---|---|
| 1778020415 | 10.56° C | 80% | 1011 hPa | 0 mm | 2.68 m/s, 0° | 0 W/m² | - |
| 1778020354 | 10.56° C | 80% | 1011.1 hPa | 0 mm | 3.13 m/s, 1° | 0 W/m² | - |
| 1778020295 | 10.56° C | 80% | 1011.1 hPa | 0 mm | 3.58 m/s, 4° | 0 W/m² | - |
| 1778020234 | 10.56° C | 80% | 1011.1 hPa | 0 mm | 2.68 m/s, 0° | 0 W/m² | - |
| 1778020172 | 10.56° C | 80% | 1011.1 hPa | 0 mm | 2.68 m/s, 0° | 0 W/m² | - |
| 1778020113 | 10.56° C | 80% | 1011.1 hPa | 0 mm | 2.68 m/s, 0° | 0 W/m² | - |
| 1778020052 | 10.56° C | 80% | 1011.1 hPa | 0 mm | 2.68 m/s, 0° | 0 W/m² | - |
| 1778019992 | 10.56° C | 80% | 1011.1 hPa | 0 mm | 2.68 m/s, 0° | 0 W/m² | - |
| 1778019932 | 10.56° C | 80% | 1011.1 hPa | 0 mm | 2.24 m/s, 353° | 0 W/m² | - |
| 1778019872 | 10.56° C | 80% | 1011 hPa | 0 mm | 2.68 m/s, 0° | 0 W/m² | - |
| 1778019812 | 10.56° C | 79% | 1011 hPa | 0 mm | 2.68 m/s, 24° | 0 W/m² | - |
| 1778019752 | 10.56° C | 79% | 1011.1 hPa | 0 mm | 3.13 m/s, 336° | 0 W/m² | - |
| 1778019692 | 10.56° C | 79% | 1011.1 hPa | 0 mm | 2.68 m/s, 357° | 0 W/m² | - |
| 1778019631 | 10.56° C | 79% | 1011.1 hPa | 0 mm | 3.13 m/s, 345° | 0 W/m² | - |
| 1778019572 | 10.56° C | 79% | 1011.1 hPa | 0 mm | 3.58 m/s, 39° | 0 W/m² | - |
| 1778019511 | 10.56° C | 79% | 1011.1 hPa | 0 mm | 3.13 m/s, 27° | 0 W/m² | - |
| 1778019452 | 10.56° C | 79% | 1011.1 hPa | 0 mm | 3.13 m/s, 4° | 0 W/m² | - |
| 1778019392 | 10.56° C | 79% | 1011 hPa | 0 mm | 3.13 m/s, 354° | 0 W/m² | - |
| 1778019332 | 10.56° C | 79% | 1011.1 hPa | 0 mm | 3.13 m/s, 347° | 0 W/m² | - |
| 1778019272 | 10.56° C | 80% | 1011.1 hPa | 0 mm | 2.68 m/s, 0° | 0 W/m² | - |
| 1778019213 | 10.56° C | 80% | 1011.1 hPa | 0 mm | 2.68 m/s, 0° | 0 W/m² | - |
| 1778019153 | 10.56° C | 80% | 1011.1 hPa | 0 mm | 2.24 m/s, 345° | 0 W/m² | - |
| 1778019094 | 10.56° C | 80% | 1011.1 hPa | 0 mm | 2.24 m/s, 18° | 0 W/m² | - |
| 1778019033 | 10.56° C | 80% | 1011.1 hPa | 0 mm | 3.13 m/s, 1° | 0 W/m² | - |
| 1778018975 | 10.56° C | 80% | 1011.2 hPa | 0 mm | 3.58 m/s, 6° | 0 W/m² | - |
* Rain latest hour (hover to see other rain measurements)
** Current wind speed in m/s (hover to see current wind gust speed)